owner,sensor,date,latitude,longitude,vertical_datum,wind_speed,wind_to_direction,wind_speed_of_gust,qcFlag 
TABS,ioos:station:wmo:42043:1,2011-12-01T00:00:00Z,28.9818,-94.9186,4.0,2.727123026,110.1629778,3.64,'11111222,11111222,11111222' 
TABS,ioos:station:wmo:42043:1,2011-12-01T00:30:00Z,28.9818,-94.9186,4.0,3.380946613,104.0366316,5.14,'11111222,11111222,11111222' 
TABS,ioos:station:wmo:42043:1,2011-12-01T01:00:00Z,28.9818,-94.9186,4.0,3.538601419,108.2817194,5.1,'11111222,11111222,11111222' 
TABS,ioos:station:wmo:42043:1,2011-12-01T01:30:00Z,28.9818,-94.9186,4.0,4.368672567,104.9909405,6.1,'11111222,11111222,11111222' 
TABS,ioos:station:wmo:42043:1,2011-12-01T02:00:00Z,28.9818,-94.9186,4.0,4.523858972,111.1197206,6.06,'11111222,11111222,11111222' 
TABS,ioos:station:wmo:42043:1,2011-12-01T02:30:00Z,28.9818,-94.9186,4.0,4.948949383,118.4814575,6.51,'11111222,11111222,11111222' 
TABS,ioos:station:wmo:42043:1,2011-12-01T03:00:00Z,28.9818,-94.9186,4.0,5.036050039,130.4905588,6.36,'11111222,11111222,11111222' 
TABS,ioos:station:wmo:42043:1,2011-12-01T03:30:00Z,28.9818,-94.9186,4.0,5.035722391,129.6019489,6.43,'11111222,11111222,11111222' 
TABS,ioos:station:wmo:42043:1,2011-12-01T04:00:00Z,28.9818,-94.9186,4.0,4.880870824,129.4301459,6.41,'11111222,11111222,11111222' 
TABS,ioos:station:wmo:42043:1,2011-12-01T04:30:00Z,28.9818,-94.9186,4.0,4.871970854,134.9171581,6.57,'11111222,11111222,11111222' 
TABS,ioos:station:wmo:42043:1,2011-12-01T05:00:00Z,28.9818,-94.9186,4.0,5.170696278,133.5114344,6.9,'11111222,11111222,11111222' 
TABS,ioos:station:wmo:42043:1,2011-12-01T05:30:00Z,28.9818,-94.9186,4.0,5.08088575,132.7670767,6.4,'11111222,11111222,11111222' 
TABS,ioos:station:wmo:42043:1,2011-12-01T06:00:00Z,28.9818,-94.9186,4.0,5.416604102,134.5515339,6.46,'11111222,11111222,11111222' 
TABS,ioos:station:wmo:42043:1,2011-12-01T06:30:00Z,28.9818,-94.9186,4.0,5.179623538,138.6791034,6.6,'11111222,11111222,11111222' 
TABS,ioos:station:wmo:42043:1,2011-12-01T07:00:00Z,28.9818,-94.9186,4.0,5.101813403,137.1449203,6.58,'11111222,11111222,11111222' 
TABS,ioos:station:wmo:42043:1,2011-12-01T07:30:00Z,28.9818,-94.9186,4.0,5.504634411,139.568357,6.62,'11111222,11111222,11111222' 
TABS,ioos:station:wmo:42043:1,2011-12-01T08:00:00Z,28.9818,-94.9186,4.0,5.058270455,152.8273329,6.76,'11111222,11111222,11111222' 
TABS,ioos:station:wmo:42043:1,2011-12-01T08:30:00Z,28.9818,-94.9186,4.0,4.29121195,147.2730831,5.66,'11111222,11111222,11111222' 
TABS,ioos:station:wmo:42043:1,2011-12-01T09:00:00Z,28.9818,-94.9186,4.0,4.603585559,148.1400208,5.9,'11111222,11111222,11111222' 
TABS,ioos:station:wmo:42043:1,2011-12-01T09:30:00Z,28.9818,-94.9186,4.0,4.579617888,145.4080027,5.5,'11111222,11111222,11111222' 
TABS,ioos:station:wmo:42043:1,2011-12-01T10:00:00Z,28.9818,-94.9186,4.0,4.469720349,141.5406862,5.44,'11111222,11111222,11111222' 
TABS,ioos:station:wmo:42043:1,2011-12-01T10:30:00Z,28.9818,-94.9186,4.0,4.609219023,144.4481654,5.56,'11111222,11111222,11111222' 
TABS,ioos:station:wmo:42043:1,2011-12-01T11:00:00Z,28.9818,-94.9186,4.0,4.565019168,141.0464703,5.71,'11111222,11111222,11111222' 
TABS,ioos:station:wmo:42043:1,2011-12-01T11:30:00Z,28.9818,-94.9186,4.0,4.751010419,146.2433267,6.38,'11111222,11111222,11111222' 
TABS,ioos:station:wmo:42043:1,2011-12-01T12:00:00Z,28.9818,-94.9186,4.0,4.408004083,143.2083876,5.47,'11111222,11111222,11111222' 
TABS,ioos:station:wmo:42043:1,2011-12-01T12:30:00Z,28.9818,-94.9186,4.0,4.150048192,147.4973279,5.22,'11111222,11111222,11111222' 
TABS,ioos:station:wmo:42043:1,2011-12-01T13:00:00Z,28.9818,-94.9186,4.0,4.306738905,138.3888648,5.67,'11111222,11111222,11111222' 
TABS,ioos:station:wmo:42043:1,2011-12-01T13:30:00Z,28.9818,-94.9186,4.0,4.709564736,139.4781848,5.83,'11111222,11111222,11111222' 
TABS,ioos:station:wmo:42043:1,2011-12-01T14:00:00Z,28.9818,-94.9186,4.0,4.307586331,136.4112532,5.06,'11111222,11111222,11111222' 
TABS,ioos:station:wmo:42043:1,2011-12-01T14:30:00Z,28.9818,-94.9186,4.0,4.462521709,135.9990293,5.25,'11111222,11111222,11111222' 
TABS,ioos:station:wmo:42043:1,2011-12-01T15:00:00Z,28.9818,-94.9186,4.0,4.732451796,136.627109,5.87,'11111222,11111222,11111222' 
TABS,ioos:station:wmo:42043:1,2011-12-01T15:30:00Z,28.9818,-94.9186,4.0,4.688752499,138.2855845,5.72,'11111222,11111222,11111222' 
TABS,ioos:station:wmo:42043:1,2011-12-01T16:00:00Z,28.9818,-94.9186,4.0,4.896243458,139.805176,6.18,'11111222,11111222,11111222' 
TABS,ioos:station:wmo:42043:1,2011-12-01T16:30:00Z,28.9818,-94.9186,4.0,5.002579335,140.6786616,5.94,'11111222,11111222,11111222' 
TABS,ioos:station:wmo:42043:1,2011-12-01T17:00:00Z,28.9818,-94.9186,4.0,5.078237883,138.2730717,6.34,'11111222,11111222,11111222' 
TABS,ioos:station:wmo:42043:1,2011-12-01T17:30:00Z,28.9818,-94.9186,4.0,4.975791394,137.5252305,6.23,'11111222,11111222,11111222' 
TABS,ioos:station:wmo:42043:1,2011-12-01T18:00:00Z,28.9818,-94.9186,4.0,5.361576261,141.7410382,6.74,'11111222,11111222,11111222' 
TABS,ioos:station:wmo:42043:1,2011-12-01T18:30:00Z,28.9818,-94.9186,4.0,5.243586559,138.7115908,6.42,'11111222,11111222,11111222' 
TABS,ioos:station:wmo:42043:1,2011-12-01T19:00:00Z,28.9818,-94.9186,4.0,5.869190745,139.0072337,7.17,'11111222,11111222,11111222' 
TABS,ioos:station:wmo:42043:1,2011-12-01T19:30:00Z,28.9818,-94.9186,4.0,5.09687159,139.0576064,6.31,'11111222,11111222,11111222' 
TABS,ioos:station:wmo:42043:1,2011-12-01T20:00:00Z,28.9818,-94.9186,4.0,5.248275907,133.6106669,6.7,'11111222,11111222,11111222' 
TABS,ioos:station:wmo:42043:1,2011-12-01T20:30:00Z,28.9818,-94.9186,4.0,5.359048423,125.7368717,6.97,'11111222,11111222,11111222' 
TABS,ioos:station:wmo:42043:1,2011-12-01T21:00:00Z,28.9818,-94.9186,4.0,5.28946122,121.7071976,6.45,'11111222,11111222,11111222' 
TABS,ioos:station:wmo:42043:1,2011-12-01T21:30:00Z,28.9818,-94.9186,4.0,5.119550762,125.4599562,6.2,'11111222,11111222,11111222' 
TABS,ioos:station:wmo:42043:1,2011-12-01T22:00:00Z,28.9818,-94.9186,4.0,4.818070153,126.5610434,5.88,'11111222,11111222,11111222' 
TABS,ioos:station:wmo:42043:1,2011-12-01T22:30:00Z,28.9818,-94.9186,4.0,4.907107091,117.8187155,6.29,'11111222,11111222,11111222' 
TABS,ioos:station:wmo:42043:1,2011-12-01T23:00:00Z,28.9818,-94.9186,4.0,4.481260983,117.0800277,5.27,'11111222,11111222,11111222' 
TABS,ioos:station:wmo:42043:1,2011-12-01T23:30:00Z,28.9818,-94.9186,4.0,4.628714724,116.8421984,5.59,'11111222,11111222,11111222' 
TABS,ioos:station:wmo:42043:1,2011-12-02T00:00:00Z,28.9818,-94.9186,4.0,4.531942189,109.1949592,5.51,'11111222,11111222,11111222' 
TABS,ioos:station:wmo:42043:1,2011-12-02T00:30:00Z,28.9818,-94.9186,4.0,5.648654707,115.9303299,6.84,'11111222,11111222,11111222' 
TABS,ioos:station:wmo:42043:1,2011-12-02T01:00:00Z,28.9818,-94.9186,4.0,5.488679258,121.8950773,6.87,'11111222,11111222,11111222' 
TABS,ioos:station:wmo:42043:1,2011-12-02T01:30:00Z,28.9818,-94.9186,4.0,5.433543963,123.1347266,6.65,'11111222,11111222,11111222' 
TABS,ioos:station:wmo:42043:1,2011-12-02T02:00:00Z,28.9818,-94.9186,4.0,5.696885114,123.3277838,6.92,'11111222,11111222,11111222' 
TABS,ioos:station:wmo:42043:1,2011-12-02T02:30:00Z,28.9818,-94.9186,4.0,5.713606567,123.2175923,6.99,'11111222,11111222,11111222' 
TABS,ioos:station:wmo:42043:1,2011-12-02T03:00:00Z,28.9818,-94.9186,4.0,5.502453998,121.9284669,6.77,'11111222,11111222,11111222' 
TABS,ioos:station:wmo:42043:1,2011-12-02T03:30:00Z,28.9818,-94.9186,4.0,5.739146278,120.0052716,7.01,'11111222,11111222,11111222' 
TABS,ioos:station:wmo:42043:1,2011-12-02T04:00:00Z,28.9818,-94.9186,4.0,5.219473153,115.7799148,6.53,'11111222,11111222,11111222' 
TABS,ioos:station:wmo:42043:1,2011-12-02T04:30:00Z,28.9818,-94.9186,4.0,4.949747468,118.740149,6.24,'11111222,11111222,11111222' 
TABS,ioos:station:wmo:42043:1,2011-12-02T05:00:00Z,28.9818,-94.9186,4.0,5.174958937,117.5062219,6.67,'11111222,11111222,11111222' 
TABS,ioos:station:wmo:42043:1,2011-12-02T05:30:00Z,28.9818,-94.9186,4.0,4.955734053,109.2031228,6.15,'11111222,11111222,11111222' 
TABS,ioos:station:wmo:42043:1,2011-12-02T06:00:00Z,28.9818,-94.9186,4.0,4.553899428,115.2148787,5.4,'11111222,11111222,11111222' 
TABS,ioos:station:wmo:42043:1,2011-12-02T06:30:00Z,28.9818,-94.9186,4.0,4.719491498,109.8175271,5.73,'11111222,11111222,11111222' 
TABS,ioos:station:wmo:42043:1,2011-12-02T07:00:00Z,28.9818,-94.9186,4.0,4.409194938,102.176832,5.39,'11111222,11111222,11111222' 
TABS,ioos:station:wmo:42043:1,2011-12-02T07:30:00Z,28.9818,-94.9186,4.0,3.828171887,93.74479625,4.79,'11111222,11111222,11111222' 
TABS,ioos:station:wmo:42043:1,2011-12-02T08:00:00Z,28.9818,-94.9186,4.0,4.29408896,97.22471972,5.18,'11111222,11111222,11111222' 
TABS,ioos:station:wmo:42043:1,2011-12-02T08:30:00Z,28.9818,-94.9186,4.0,4.61061818,104.1873299,5.88,'11111222,11111222,11111222' 
TABS,ioos:station:wmo:42043:1,2011-12-02T09:00:00Z,28.9818,-94.9186,4.0,5.59272742,97.08729976,7.0,'11111222,11111222,11111222' 
TABS,ioos:station:wmo:42043:1,2011-12-02T09:30:00Z,28.9818,-94.9186,4.0,6.259209215,100.2151816,7.57,'11111222,11111222,11111222' 
TABS,ioos:station:wmo:42043:1,2011-12-02T10:00:00Z,28.9818,-94.9186,4.0,6.444571359,98.11793115,7.86,'11111222,11111222,11111222' 
TABS,ioos:station:wmo:42043:1,2011-12-02T10:30:00Z,28.9818,-94.9186,4.0,6.85759433,100.1632562,8.33,'11111222,11111222,11111222' 
TABS,ioos:station:wmo:42043:1,2011-12-02T11:00:00Z,28.9818,-94.9186,4.0,6.495536929,101.7255055,8.02,'11111222,11111222,11111222' 
TABS,ioos:station:wmo:42043:1,2011-12-02T11:30:00Z,28.9818,-94.9186,4.0,7.424587531,104.7478771,9.01,'11111222,11111222,11111222' 
TABS,ioos:station:wmo:42043:1,2011-12-02T12:00:00Z,28.9818,-94.9186,4.0,7.934488011,107.9101122,10.26,'11111222,11111222,11111222' 
TABS,ioos:station:wmo:42043:1,2011-12-02T12:30:00Z,28.9818,-94.9186,4.0,7.62272917,107.2467908,9.86,'11111222,11111222,11111222' 
TABS,ioos:station:wmo:42043:1,2011-12-02T13:00:00Z,28.9818,-94.9186,4.0,8.260024213,108.786291,10.65,'11111222,11111222,11111222' 
TABS,ioos:station:wmo:42043:1,2011-12-02T13:30:00Z,28.9818,-94.9186,4.0,8.619657766,109.8017526,10.62,'11111222,11111222,11111222' 
TABS,ioos:station:wmo:42043:1,2011-12-02T14:00:00Z,28.9818,-94.9186,4.0,9.703823989,113.6331243,12.4,'11111222,11111222,11111222' 
TABS,ioos:station:wmo:42043:1,2011-12-02T14:30:00Z,28.9818,-94.9186,4.0,9.313780113,115.162195,11.56,'11111222,11111222,11111222' 
TABS,ioos:station:wmo:42043:1,2011-12-02T15:00:00Z,28.9818,-94.9186,4.0,9.624635058,117.2043684,12.01,'11111222,11111222,11111222' 
TABS,ioos:station:wmo:42043:1,2011-12-02T15:30:00Z,28.9818,-94.9186,4.0,9.356414912,119.1679661,11.75,'11111222,11111222,11111222' 
TABS,ioos:station:wmo:42043:1,2011-12-02T16:00:00Z,28.9818,-94.9186,4.0,8.758361719,117.7649903,11.02,'11111222,11111222,11111222' 
TABS,ioos:station:wmo:42043:1,2011-12-02T16:30:00Z,28.9818,-94.9186,4.0,8.721496431,118.5636266,11.49,'11111222,11111222,11111222' 
TABS,ioos:station:wmo:42043:1,2011-12-02T17:00:00Z,28.9818,-94.9186,4.0,7.996561761,119.9318628,10.0,'11111222,11111222,11111222' 
TABS,ioos:station:wmo:42043:1,2011-12-02T17:30:00Z,28.9818,-94.9186,4.0,7.397513096,119.476241,9.74,'11111222,11111222,11111222' 
TABS,ioos:station:wmo:42043:1,2011-12-02T18:00:00Z,28.9818,-94.9186,4.0,7.372068909,118.9643711,9.08,'11111222,11111222,11111222' 
TABS,ioos:station:wmo:42043:1,2011-12-02T18:30:00Z,28.9818,-94.9186,4.0,7.026478492,115.7266412,8.83,'11111222,11111222,11111222' 
TABS,ioos:station:wmo:42043:1,2011-12-02T19:00:00Z,28.9818,-94.9186,4.0,7.123713919,113.7586941,8.63,'11111222,11111222,11111222' 
TABS,ioos:station:wmo:42043:1,2011-12-02T19:30:00Z,28.9818,-94.9186,4.0,6.719412177,110.8358581,8.37,'11111222,11111222,11111222' 
TABS,ioos:station:wmo:42043:1,2011-12-02T20:00:00Z,28.9818,-94.9186,4.0,6.482669203,108.4353266,7.92,'11111222,11111222,11111222' 
TABS,ioos:station:wmo:42043:1,2011-12-02T20:30:00Z,28.9818,-94.9186,4.0,6.608789602,102.5856204,8.39,'11111222,11111222,11111222' 
TABS,ioos:station:wmo:42043:1,2011-12-02T21:00:00Z,28.9818,-94.9186,4.0,6.275746967,101.4893753,7.86,'11111222,11111222,11111222' 
TABS,ioos:station:wmo:42043:1,2011-12-02T21:30:00Z,28.9818,-94.9186,4.0,6.464920727,100.3369509,8.17,'11111222,11111222,11111222' 
TABS,ioos:station:wmo:42043:1,2011-12-02T22:00:00Z,28.9818,-94.9186,4.0,7.20877937,107.1031099,9.19,'11111222,11111222,11111222' 
TABS,ioos:station:wmo:42043:1,2011-12-02T22:30:00Z,28.9818,-94.9186,4.0,7.858275892,108.3200438,9.56,'11111222,11111222,11111222' 
TABS,ioos:station:wmo:42043:1,2011-12-02T23:00:00Z,28.9818,-94.9186,4.0,7.605156146,106.8150832,9.71,'11111222,11111222,11111222' 
TABS,ioos:station:wmo:42043:1,2011-12-02T23:30:00Z,28.9818,-94.9186,4.0,6.662079255,101.4283926,8.33,'11111222,11111222,11111222' 
TABS,ioos:station:wmo:42043:1,2011-12-03T00:00:00Z,28.9818,-94.9186,4.0,6.481242165,103.2004147,8.24,'11111222,11111222,11111222' 
TABS,ioos:station:wmo:42043:1,2011-12-03T00:30:00Z,28.9818,-94.9186,4.0,6.820102639,105.5649682,8.39,'11111222,11111222,11111222' 
TABS,ioos:station:wmo:42043:1,2011-12-03T01:00:00Z,28.9818,-94.9186,4.0,7.067856818,114.1357033,9.2,'11111222,11111222,11111222' 
TABS,ioos:station:wmo:42043:1,2011-12-03T01:30:00Z,28.9818,-94.9186,4.0,7.793952784,112.320525,9.89,'11111222,11111222,11111222' 
TABS,ioos:station:wmo:42043:1,2011-12-03T02:00:00Z,28.9818,-94.9186,4.0,6.182831067,106.442219,7.77,'11111222,11111222,11111222' 
TABS,ioos:station:wmo:42043:1,2011-12-03T02:30:00Z,28.9818,-94.9186,4.0,6.072108365,122.6958844,7.71,'11111222,11111222,11111222' 
TABS,ioos:station:wmo:42043:1,2011-12-03T03:00:00Z,28.9818,-94.9186,4.0,5.774028057,126.6916182,7.29,'11111222,11111222,11111222' 
TABS,ioos:station:wmo:42043:1,2011-12-03T03:30:00Z,28.9818,-94.9186,4.0,4.854894438,122.3810229,5.87,'11111222,11111222,11111222' 
TABS,ioos:station:wmo:42043:1,2011-12-03T04:00:00Z,28.9818,-94.9186,4.0,5.750912971,131.7579688,7.06,'11111222,11111222,11111222' 
TABS,ioos:station:wmo:42043:1,2011-12-03T04:30:00Z,28.9818,-94.9186,4.0,5.975366098,121.5890041,7.16,'11111222,11111222,11111222' 
TABS,ioos:station:wmo:42043:1,2011-12-03T05:00:00Z,28.9818,-94.9186,4.0,6.420420547,131.2114347,7.88,'11111222,11111222,11111222' 
TABS,ioos:station:wmo:42043:1,2011-12-03T05:30:00Z,28.9818,-94.9186,4.0,6.572701119,142.2935167,8.22,'11111222,11111222,11111222' 
TABS,ioos:station:wmo:42043:1,2011-12-03T06:00:00Z,28.9818,-94.9186,4.0,6.50154597,136.8077395,8.28,'11111222,11111222,11111222' 
TABS,ioos:station:wmo:42043:1,2011-12-03T06:30:00Z,28.9818,-94.9186,4.0,6.948740893,140.6064685,9.2,'11111222,11111222,11111222' 
TABS,ioos:station:wmo:42043:1,2011-12-03T07:00:00Z,28.9818,-94.9186,4.0,7.219113519,152.4413446,9.94,'11111222,11111222,11111222' 
TABS,ioos:station:wmo:42043:1,2011-12-03T07:30:00Z,28.9818,-94.9186,4.0,7.192781103,155.78705,9.05,'11111222,11111222,11111222' 
TABS,ioos:station:wmo:42043:1,2011-12-03T08:00:00Z,28.9818,-94.9186,4.0,6.507134546,149.731168,8.01,'11111222,11111222,11111222' 
TABS,ioos:station:wmo:42043:1,2011-12-03T08:30:00Z,28.9818,-94.9186,4.0,7.434224909,147.3576746,9.76,'11111222,11111222,11111222' 
TABS,ioos:station:wmo:42043:1,2011-12-03T09:00:00Z,28.9818,-94.9186,4.0,7.479304781,150.3504163,9.5,'11111222,11111222,11111222' 
TABS,ioos:station:wmo:42043:1,2011-12-03T09:30:00Z,28.9818,-94.9186,4.0,7.294251161,153.0136792,9.27,'11111222,11111222,11111222' 
TABS,ioos:station:wmo:42043:1,2011-12-03T10:00:00Z,28.9818,-94.9186,4.0,6.247919654,148.5489825,8.03,'11111222,11111222,11111222' 
TABS,ioos:station:wmo:42043:1,2011-12-03T10:30:00Z,28.9818,-94.9186,4.0,6.686890159,148.6397688,8.17,'11111222,11111222,11111222' 
TABS,ioos:station:wmo:42043:1,2011-12-03T11:00:00Z,28.9818,-94.9186,4.0,7.090063469,152.1702235,8.52,'11111222,11111222,11111222' 
TABS,ioos:station:wmo:42043:1,2011-12-03T11:30:00Z,28.9818,-94.9186,4.0,7.044501402,154.3445997,9.09,'11111222,11111222,11111222' 
TABS,ioos:station:wmo:42043:1,2011-12-03T12:00:00Z,28.9818,-94.9186,4.0,6.713843906,154.5039036,8.27,'11111222,11111222,11111222' 
TABS,ioos:station:wmo:42043:1,2011-12-03T12:30:00Z,28.9818,-94.9186,4.0,6.520812833,149.699571,8.88,'11111222,11111222,11111222' 
TABS,ioos:station:wmo:42043:1,2011-12-03T13:00:00Z,28.9818,-94.9186,4.0,6.079901315,156.1334615,7.7,'11111222,11111222,11111222' 
TABS,ioos:station:wmo:42043:1,2011-12-03T13:30:00Z,28.9818,-94.9186,4.0,5.181978387,151.4074661,6.43,'11111222,11111222,11111222' 
TABS,ioos:station:wmo:42043:1,2011-12-03T14:00:00Z,28.9818,-94.9186,4.0,4.864339626,148.1072708,6.01,'11111222,11111222,11111222' 
TABS,ioos:station:wmo:42043:1,2011-12-03T14:30:00Z,28.9818,-94.9186,4.0,5.304573498,148.6475221,6.52,'11111222,11111222,11111222' 
TABS,ioos:station:wmo:42043:1,2011-12-03T15:00:00Z,28.9818,-94.9186,4.0,5.630719315,152.8436273,6.76,'11111222,11111222,11111222' 
TABS,ioos:station:wmo:42043:1,2011-12-03T15:30:00Z,28.9818,-94.9186,4.0,5.747390712,152.5435324,7.66,'11111222,11111222,11111222' 
TABS,ioos:station:wmo:42043:1,2011-12-03T16:00:00Z,28.9818,-94.9186,4.0,6.598075477,158.7632434,7.86,'11111222,11111222,11111222' 
TABS,ioos:station:wmo:42043:1,2011-12-03T16:30:00Z,28.9818,-94.9186,4.0,6.343910466,162.1936466,7.79,'11111222,11111222,11111222' 
TABS,ioos:station:wmo:42043:1,2011-12-03T17:00:00Z,28.9818,-94.9186,4.0,5.481541754,166.4963777,6.75,'11111222,11111222,11111222' 
TABS,ioos:station:wmo:42043:1,2011-12-03T17:30:00Z,28.9818,-94.9186,4.0,5.638953804,165.9393565,7.11,'11111222,11111222,11111222' 
TABS,ioos:station:wmo:42043:1,2011-12-03T18:00:00Z,28.9818,-94.9186,4.0,4.788037176,165.2384099,6.05,'11111222,11111222,11111222' 
TABS,ioos:station:wmo:42043:1,2011-12-03T18:30:00Z,28.9818,-94.9186,4.0,4.122341568,155.797871,5.37,'11111222,11111222,11111222' 
TABS,ioos:station:wmo:42043:1,2011-12-03T19:00:00Z,28.9818,-94.9186,4.0,4.680021367,147.5666527,6.32,'11111222,11111222,11111222' 
TABS,ioos:station:wmo:42043:1,2011-12-03T19:30:00Z,28.9818,-94.9186,4.0,4.859351809,145.8196888,6.2,'11111222,11111222,11111222' 
TABS,ioos:station:wmo:42043:1,2011-12-03T20:00:00Z,28.9818,-94.9186,4.0,2.456928977,157.5059679,3.68,'11111222,11111222,11111222' 
TABS,ioos:station:wmo:42043:1,2011-12-03T20:30:00Z,28.9818,-94.9186,4.0,4.12019417,143.68665,5.15,'11111222,11111222,11111222' 
TABS,ioos:station:wmo:42043:1,2011-12-03T21:00:00Z,28.9818,-94.9186,4.0,5.144871233,146.4955439,6.69,'11111222,11111222,11111222' 
TABS,ioos:station:wmo:42043:1,2011-12-03T21:30:00Z,28.9818,-94.9186,4.0,5.354344031,148.5960816,6.62,'11111222,11111222,11111222' 
TABS,ioos:station:wmo:42043:1,2011-12-03T22:00:00Z,28.9818,-94.9186,4.0,4.6,143.130399,5.94,'11111222,11111222,11111222' 
TABS,ioos:station:wmo:42043:1,2011-12-03T22:30:00Z,28.9818,-94.9186,4.0,4.864123765,140.2550595,6.07,'11111222,11111222,11111222' 
TABS,ioos:station:wmo:42043:1,2011-12-03T23:00:00Z,28.9818,-94.9186,4.0,5.682904187,138.7100526,7.02,'11111222,11111222,11111222' 
TABS,ioos:station:wmo:42043:1,2011-12-03T23:30:00Z,28.9818,-94.9186,4.0,4.932068532,158.2204241,6.72,'11111222,11111222,11111222' 
TABS,ioos:station:wmo:42043:1,2011-12-04T00:00:00Z,28.9818,-94.9186,4.0,5.644484033,163.4273997,7.39,'11111222,11111222,11111222' 
TABS,ioos:station:wmo:42043:1,2011-12-04T00:30:00Z,28.9818,-94.9186,4.0,7.148496345,157.2016006,9.13,'11111222,11111222,11111222' 
TABS,ioos:station:wmo:42043:1,2011-12-04T01:00:00Z,28.9818,-94.9186,4.0,5.505942245,150.0359752,6.98,'11111222,11111222,11111222' 
TABS,ioos:station:wmo:42043:1,2011-12-04T01:30:00Z,28.9818,-94.9186,4.0,4.48582211,152.8068796,5.62,'11111222,11111222,11111222' 
TABS,ioos:station:wmo:42043:1,2011-12-04T02:00:00Z,28.9818,-94.9186,4.0,4.365775991,146.9654165,5.39,'11111222,11111222,11111222' 
TABS,ioos:station:wmo:42043:1,2011-12-04T02:30:00Z,28.9818,-94.9186,4.0,4.562477397,142.3015413,5.83,'11111222,11111222,11111222' 
TABS,ioos:station:wmo:42043:1,2011-12-04T03:00:00Z,28.9818,-94.9186,4.0,3.994721517,152.0880917,5.31,'11111222,11111222,11111222' 
TABS,ioos:station:wmo:42043:1,2011-12-04T03:30:00Z,28.9818,-94.9186,4.0,2.394535446,147.9695388,3.42,'11111222,11111222,11111222' 
TABS,ioos:station:wmo:42043:1,2011-12-04T04:00:00Z,28.9818,-94.9186,4.0,2.660695398,139.7260105,3.5,'11111222,11111222,11111222' 
TABS,ioos:station:wmo:42043:1,2011-12-04T04:30:00Z,28.9818,-94.9186,4.0,2.573868684,135.0003157,3.28,'11111222,11111222,11111222' 
TABS,ioos:station:wmo:42043:1,2011-12-04T05:00:00Z,28.9818,-94.9186,4.0,2.969882153,135.27315,3.8,'11111222,11111222,11111222' 
TABS,ioos:station:wmo:42043:1,2011-12-04T05:30:00Z,28.9818,-94.9186,4.0,2.971497939,133.0911677,4.32,'11111222,11111222,11111222' 
TABS,ioos:station:wmo:42043:1,2011-12-04T06:00:00Z,28.9818,-94.9186,4.0,3.52790306,123.5552787,4.56,'11111222,11111222,11111222' 
TABS,ioos:station:wmo:42043:1,2011-12-04T06:30:00Z,28.9818,-94.9186,4.0,3.678369204,122.5671096,4.89,'11111222,11111222,11111222' 
TABS,ioos:station:wmo:42043:1,2011-12-04T07:00:00Z,28.9818,-94.9186,4.0,4.62086572,124.240651,5.66,'11111222,11111222,11111222' 
TABS,ioos:station:wmo:42043:1,2011-12-04T07:30:00Z,28.9818,-94.9186,4.0,3.932429275,133.763911,4.92,'11111222,11111222,11111222' 
TABS,ioos:station:wmo:42043:1,2011-12-04T08:00:00Z,28.9818,-94.9186,4.0,4.119465985,137.5582143,5.47,'11111222,11111222,11111222' 
TABS,ioos:station:wmo:42043:1,2011-12-04T08:30:00Z,28.9818,-94.9186,4.0,3.832714443,144.2367014,5.14,'11111222,11111222,11111222' 
TABS,ioos:station:wmo:42043:1,2011-12-04T09:00:00Z,28.9818,-94.9186,4.0,4.156500932,138.0233421,5.18,'11111222,11111222,11111222' 
TABS,ioos:station:wmo:42043:1,2011-12-04T09:30:00Z,28.9818,-94.9186,4.0,4.498099599,140.6840087,5.68,'11111222,11111222,11111222' 
TABS,ioos:station:wmo:42043:1,2011-12-04T10:00:00Z,28.9818,-94.9186,4.0,3.564056677,145.8643502,4.85,'11111222,11111222,11111222' 
TABS,ioos:station:wmo:42043:1,2011-12-04T10:30:00Z,28.9818,-94.9186,4.0,4.262510997,142.2432075,5.29,'11111222,11111222,11111222' 
TABS,ioos:station:wmo:42043:1,2011-12-04T11:00:00Z,28.9818,-94.9186,4.0,4.630604712,151.7749429,6.2,'11111222,11111222,11111222' 
TABS,ioos:station:wmo:42043:1,2011-12-04T11:30:00Z,28.9818,-94.9186,4.0,5.937760521,157.1057615,7.83,'11111222,11111222,11111222' 
TABS,ioos:station:wmo:42043:1,2011-12-04T12:00:00Z,28.9818,-94.9186,4.0,6.114000327,152.6389177,7.74,'11111222,11111222,11111222' 
TABS,ioos:station:wmo:42043:1,2011-12-04T12:30:00Z,28.9818,-94.9186,4.0,5.569245909,174.1258415,8.62,'11111222,11111222,11111222' 
TABS,ioos:station:wmo:42043:1,2011-12-04T13:00:00Z,28.9818,-94.9186,4.0,4.941588813,202.3613733,7.5,'11111222,11111222,11111222' 
TABS,ioos:station:wmo:42043:1,2011-12-04T13:30:00Z,28.9818,-94.9186,4.0,5.01665227,191.2653193,7.2,'11111222,11111222,11111222' 
TABS,ioos:station:wmo:42043:1,2011-12-04T14:00:00Z,28.9818,-94.9186,4.0,5.008991915,213.4363996,7.01,'11111222,11111222,11111222' 
TABS,ioos:station:wmo:42043:1,2011-12-04T14:30:00Z,28.9818,-94.9186,4.0,7.337697186,202.6860936,11.24,'11111222,11111222,11111222' 
TABS,ioos:station:wmo:42043:1,2011-12-04T15:00:00Z,28.9818,-94.9186,4.0,6.913501284,211.5750629,10.13,'11111222,11111222,11111222' 
TABS,ioos:station:wmo:42043:1,2011-12-04T15:30:00Z,28.9818,-94.9186,4.0,3.933001398,188.4805325,5.85,'11111222,11111222,11111222' 
TABS,ioos:station:wmo:42043:1,2011-12-04T16:00:00Z,28.9818,-94.9186,4.0,5.233822695,182.1901814,7.28,'11111222,11111222,11111222' 
TABS,ioos:station:wmo:42043:1,2011-12-04T16:30:00Z,28.9818,-94.9186,4.0,8.849028195,183.7582858,12.04,'11111222,11111222,11111222' 
TABS,ioos:station:wmo:42043:1,2011-12-04T17:00:00Z,28.9818,-94.9186,4.0,6.984475642,177.948951,10.23,'11111222,11111222,11111222' 
TABS,ioos:station:wmo:42043:1,2011-12-04T17:30:00Z,28.9818,-94.9186,4.0,7.103590641,185.5743532,11.07,'11111222,11111222,11111222' 
TABS,ioos:station:wmo:42043:1,2011-12-04T18:00:00Z,28.9818,-94.9186,4.0,8.742133607,190.3460672,11.9,'11111222,11111222,11111222' 
TABS,ioos:station:wmo:42043:1,2011-12-04T18:30:00Z,28.9818,-94.9186,4.0,6.879680225,184.3350308,8.99,'11111222,11111222,11111222' 